Regional Weather Roundup
Issued by NWS

Home | Current Version | Previous Version | Text Only | Print | Product List | Glossary Off
Versions: 1 2 3 4 5 6 7 8 9 10 11 12 13 14 15 16 17 18 19 20 21 22 23 24 25 26 27 28 29 30 31 32 33 34 35 36 37 38 39 40 41 42 43 44 45 46 47 48 49 50

101
ASUS43 KLMK 182210
RWRKY
KENTUCKY REGIONAL WEATHER ROUNDUP
NATIONAL WEATHER SERVICE LOUISVILLE KY
500 PM EST SAT NOV 18 2017

NOTE "FAIR" INDICATES FEW OR NO CLOUDS BELOW 12,000 FEET
WITH NO SIGNIFICANT WEATHER AND/OR OBSTRUCTIONS TO VISIBILITY.

KYZ001>023-026-027-061>063-070>075-182300-
WESTERN AND SOUTH CENTRAL KENTUCKY

CITY           SKY/WX    TMP DP  RH WIND       PRES   REMARKS
PADUCAH        CLOUDY    48  40  73 NW22G36   29.62R
HENDERSON      CLOUDY    47  44  90 NW22G28   29.53R
OWENSBORO      CLOUDY    48  46  93 NW26G38   29.48R
HOPKINSVILLE   CLOUDY    52  48  87 NW28G43   29.52R
BOWLING GREEN  LGT RAIN  67  63  87 SW20G31   29.39F
GLASGOW        CLOUDY    65  62  89 SW20G31   29.40F
$$

KYZ024-025-028>034-038-045-046-053-182300-
NORTH CENTRAL KENTUCKY

CITY           SKY/WX    TMP DP  RH WIND       PRES   REMARKS
LOUISVILLE/SDF HVY RAIN  65  61  87 S12G25    29.28F FOG
LOUISVILLE/LOU RAIN      64  63  96 S13G23    29.29F FOG
FORT KNOX      LGT RAIN  63  59  88 SW17G33   29.35R FOG
$$

KYZ035>037-039>044-047>052-055>060-089>105-182300-
NORTHEAST KENTUCKY

CITY           SKY/WX    TMP DP  RH WIND       PRES   REMARKS
LEXINGTON      LGT RAIN  63  57  81 S23G36    29.35F
COVINGTON      HVY RAIN  61  61 100 W21       29.27S FOG
FRANKFORT      LGT RAIN  64  57  78 S21G30    29.31F
$$

KYZ054-064>069-076>088-106>120-182300-
SOUTHEAST KENTUCKY

CITY           SKY/WX    TMP DP  RH WIND       PRES   REMARKS
JACKSON        CLOUDY    62  51  67 MISG      29.45F
LONDON         CLOUDY    63  53  70 S13G25    29.48F
SOMERSET       CLOUDY    59  52  77 S12G22    29.48F
MIDDLESBORO    CLOUDY    58  55  88 S15G21    29.58F
MONTICELLO     LGT RAIN  58  56  93 SE8       29.49F
$$





USA.gov is the U.S. government's official web portal to all federal, state and local government web resources and services.